Location: Brown Observing Site
(43.4354°N, 116.3366°W)
Time: 06:38:24
(UTC-06:00)

Envisat - Pass Details

Date: 07 October 2020
Orbit: 764 x 766 km, 98.1° (Epoch: 26 October)

Event Time Altitude Azimuth Distance (km) Brightness Sun altitude
Rises 06:44:12 0° 27° (NNE) 3,238 6.7 -12.8°
Reaches altitude 10° 06:47:05 10° 44° (NE) 2,306 6.2 -12.3°
Maximum altitude 06:50:53 21° 92° (E) 1,672 5.9 -11.6°
Drops below altitude 10° 06:54:39 10° 141° (SE) 2,293 6.0 -11.0°
Sets 06:57:29 0° 157° (SSE) 3,214 6.5 -10.4°
